Weather in Milwaukee

United States     43˚02′27″N   87˚54′23″W
temp.,
°C
wind,
m/s
gust,
m/s
humid.,
%
clouds,
%
prec.,
mm/h
press.,
hPa
HPBL,
m
29 november, sun
sun2900:00+5˚wsw515790 0.0 1015439
03:00+4˚wsw512850 0.0 1015371
06:00+3˚wsw511870 0.0 1015288
09:00+4˚wsw5108233 0.0 1015366
12:00+6˚wnw596465 0.0 1014596
15:00+5˚nw5863100 0.0 1015915
18:00+3˚nnw51062100 0.0 1017929
21:00+1˚nnw61163100 0.0 10181006
30 november, mon
mon3000:00n51065100 0.0 10181027
03:00−1˚n61167100 0.0 1018995
06:00−2˚n6116399 0.0 10181040
09:00−2˚n7125795 0.0 10191077
12:00n7114996 0.0 10161222
15:00n6104628 0.0 10161262
18:00−2˚n5115229 0.0 10161080
21:00−3˚n610590 0.0 1016878
1 december, tue
tue100:00−4˚nnw5106423 0.0 1015755
03:00−4˚nnw596793 0.0 1015703
06:00−4˚nnw5107091 0.0 1015618
09:00−3˚nnw59660 0.0 1014635
12:00nw58560 0.0 1013715
15:00nw510520 0.0 1012697
18:00−2˚nw411590 0.0 1014422
21:00−2˚nw49610 0.0 1014343
2 december, wed
wed200:00−3˚nw49670 0.0 1015315
03:00−3˚wnw49650 0.0 1016296
06:00−3˚wnw36620 0.0 1018211
09:00−1˚nw36500 0.0 1020232
12:00+3˚wnw343829 0.0 1020299
15:00+2˚w3547100 0.0 1021179
18:00−1˚w245483 0.0 102277
21:00−1˚wnw22550 0.0 102248
3 december, thu
thu300:00−2˚wsw34540 0.0 102397
03:00−2˚w24550 0.0 1023110
06:00−2˚sw125313 0.0 102235
09:00sw114568 0.0 1022116
12:00+3˚ssw234178 0.0 1021385
15:00+1˚wsw1159100 0.2 101960
18:00+1˚nnw1184100 0.7 101953
21:00+1˚wnw2372100 0.0 1019147